Weather Roundup
Issued by NWS

Home | Current Version | Previous Version | Text Only | Print | Product List | Glossary On
Versions: 1 2 3 4 5 6 7 8 9 10 11 12 13 14 15 16 17 18 19 20 21 22 23 24 25 26 27 28 29 30 31 32 33 34 35 36 37 38 39 40 41 42 43 44 45 46 47 48 49 50
000
NZUS93 KARX 281510
HRRWXR

CURRENT HOURLY OBSERVATIONS ACROSS
MUCH OF THE UPPER MISSISSIPPI VALLEY
NATIONAL WEATHER SERVICE LA CROSSE WI
1000 AM CDT TUE JUL 28 2015


...SOUTHEAST MINNESOTA...


CITY           SKY/WX    TMP DP  RH WIND       PRES   REMARKS
ROCHESTER      LGT RAIN  68  67  96 E17       29.89F
ROCHESTER/MAYO CLOUDY    67  67 100 E16G23    29.87F
WINONA         HVY RAIN  70  68  94 CALM      29.98S
AUSTIN         RAIN      72  68  88 SE22G29   29.78F
ALBERT LEA     CLOUDY    72  70  94 SE15G24   29.80R
DODGE CENTER   LGT RAIN  66  66 100 SE18G31   29.79F
PRESTON        HVY RAIN  67  66  94 NE3       30.00S
OWATONNA       CLOUDY    70  66  88 SE10      29.80R
FARIBAULT      CLOUDY    70  66  88 SE12      29.81R
$$

...ELSEWHERE IN MINNESOTA...


CITY           SKY/WX    TMP DP  RH WIND       PRES   REMARKS
MINNEAPOLIS    CLOUDY    73  69  87 SE13G22   29.80R
INTNL FALLS    LGT RAIN  72  69  90 SE7       29.72S
DULUTH         CLOUDY    73  68  84 SE21G29   29.71F
RED WING       LGT RAIN  72  70  94 SE25G36   29.77F
REDWOOD FALLS  CLOUDY    72  66  81 SW8       29.79R
MANKATO        CLOUDY    70  64  83 SE7       29.82R
WORTHINGTON    CLOUDY    70  64  83 SW10      29.82R
FAIRMONT       CLOUDY    72  64  78 S9        29.81S
$$

...SOUTHWEST WISCONSIN...


CITY           SKY/WX    TMP DP  RH WIND       PRES   REMARKS
LA CROSSE      RAIN      71  69  93 N5        29.97R FOG
PRAIRIE DU CHI RAIN      71  68  90 E8        29.96F
BOSCOBEL       LGT RAIN  74  70  87 CALM      30.00R FOG
LONE ROCK      PTSUNNY   77  68  73 S3        30.01R
PLATTEVILLE    PTSUNNY   76  71  85 S3        30.02R
FORT MC COY    HVY RAIN  70  65  85 S5        30.01R
CAMP DOUGLAS   CLOUDY    75  72  88 S6        30.00R
VIROQUA        CLOUDY    69  69  99 S5        30.02R
WIS DELLS      MOSUNNY   79  61  54 S7        30.00S
$$

...ELSEWHERE IN WISCONSIN...


CITY           SKY/WX    TMP DP  RH WIND       PRES   REMARKS
MILWAUKEE      MOSUNNY   82  66  58 SE8       30.00R
MADISON        PTSUNNY   81  64  56 S13       30.00R
GREEN BAY      SUNNY     81  67  62 S10       30.01S
EAU CLAIRE     RAIN      70  67  90 S12       29.95S FOG
BLACK RVR FLS  HVY RAIN  71  70  98 S3        29.99R
MEDFORD        CLOUDY    71  64  79 S10       30.01R
WAUSAU         PTSUNNY   78  63  59 S13       29.99S
WIS RAPIDS     CLOUDY    79  63  57 SW9       30.02R
MARSHFIELD     CLOUDY    75  63  66 S7        30.01R
RICE LAKE      RAIN      69  67  94 SE15      29.89F
$$

...NORTHEAST IOWA...


CITY           SKY/WX    TMP DP  RH WIND       PRES   REMARKS
DECORAH        DRIZZLE   72  72 100 E7        29.96S
MASON CITY     LGT RAIN  72  71  97 SE10      29.90R
CHARLES CITY   LGT RAIN  72  72 100 SE8       29.92F
OELWEIN        CLOUDY    73  73 100 SE8       29.96S
$$

...ELSEWHERE IN IOWA...


CITY           SKY/WX    TMP DP  RH WIND       PRES   REMARKS
DES MOINES     CLOUDY    76  71  85 N7        29.94F
IOWA CITY      MOSUNNY   78  74  87 SE8       29.96S
FORT DODGE     CLOUDY    70  66  88 SE18G26   29.82F
$$

...NORTHERN ILLINOIS...


CITY           SKY/WX    TMP DP  RH WIND       PRES   REMARKS
CHICAGO-OHARE  MOSUNNY   83  67  58 SE12      29.98S
CHICAGO-MIDWAY MOSUNNY   86  66  51 SE10      29.97F
MOLINE         PTSUNNY   79  73  82 SE5       29.95S
ROCKFORD       PTSUNNY   79  68  69 S5        30.02R
PEORIA         SUNNY     85  74  69 S6        29.97R HX  92
$$

NOTE: "FAIR" INDICATES FEW OR NO CLOUDS BELOW 12,000 FEET WITH NO
SIGNIFICANT WEATHER AND/OR OBSTRUCTIONS TO VISIBILITY. WIND
SPEEDS ARE IN MILES-PER-HOUR.



USA.gov is the U.S. government's official web portal to all federal, state and local government web resources and services.